Date String (YYYY-MM-DD hh:mm:ss) UTC,Instrument flags,Ambient pressure (hPa),Sample flow (lpm),Bypass flow (lpm),Sample temperature (°C),Ambient temperature (°C),ASC tube jacket temperature (°C),LED temperature (°C),Box temperature (°C),Sample RH (%),Span deviation,Mass concentration (μg/m³),Mass concentration (μg/m³),Mass concentration (μg/m³)
DateTimeUTC,F1_M11,P_M11,Q1_M11,Q2_M11,T1_M11,T2_M11,T3_M11,T4_M11,T5_M11,U1_M11,ZSPAN_M11,X0_M11,X2_M11,X1_M11
2022-11-23 02:00:00,,0826.4,5.01,0.00,25.3,23.7,00.0,34.4,27.0,07.5,0000.0,0010.63,0003.92,0003.28
2022-11-23 02:01:00,,0826.4,5.01,0.00,25.3,23.7,00.0,34.4,26.9,07.5,0000.0,0010.97,0003.92,0003.29
2022-11-23 02:02:00,,0826.3,4.99,0.00,25.3,23.7,00.0,34.4,26.9,07.5,0000.0,0010.49,0003.89,0003.28
2022-11-23 02:03:00,,0826.3,5.00,0.00,25.3,23.6,00.0,34.4,26.9,07.5,0000.0,0009.68,0003.88,0003.28
2022-11-23 02:04:00,,0826.3,5.01,0.00,25.3,23.6,00.0,34.4,26.8,07.5,0000.0,0009.30,0003.88,0003.29
2022-11-23 02:05:00,,0826.3,5.01,0.00,25.3,23.6,00.0,34.3,26.9,07.5,0000.0,0009.54,0003.88,0003.29
2022-11-23 02:06:00,,0826.4,5.00,0.00,25.2,23.6,00.0,34.3,26.9,07.5,0000.0,0010.46,0003.88,0003.29
2022-11-23 02:07:00,,0826.4,5.00,0.00,25.2,23.6,00.0,34.3,26.8,07.5,0000.0,0011.11,0003.86,0003.29
2022-11-23 02:08:00,,0826.4,5.00,0.00,25.2,23.6,00.0,34.3,26.8,07.5,0000.0,0010.56,0003.84,0003.28
2022-11-23 02:09:00,,0826.4,5.00,0.00,25.2,23.6,00.0,34.3,26.7,07.5,0000.0,0010.38,0003.80,0003.27
2022-11-23 02:10:00,,0826.4,5.00,0.00,25.2,23.6,00.0,34.3,26.7,07.5,0000.0,0010.37,0003.80,0003.26
2022-11-23 02:11:00,,0826.4,5.00,0.00,25.2,23.6,00.0,34.3,26.7,07.5,0000.0,0010.28,0003.80,0003.26
2022-11-23 02:12:00,,0826.3,5.01,0.00,25.2,23.6,00.0,34.2,26.8,07.6,0000.0,0009.33,0003.78,0003.26
2022-11-23 02:13:00,,0826.3,5.00,0.00,25.1,23.5,00.0,34.2,26.8,07.6,0000.0,0009.78,0003.78,0003.26
2022-11-23 02:14:00,,0826.3,5.00,0.00,25.1,23.5,00.0,34.2,26.8,07.5,0000.0,0010.13,0003.80,0003.25
2022-11-23 02:15:00,,0826.3,5.00,0.00,25.1,23.5,00.0,34.2,26.9,07.5,0000.0,0010.22,0003.78,0003.23
2022-11-23 02:16:00,,0826.3,5.00,0.00,25.1,23.5,00.0,34.2,26.8,07.5,0000.0,0009.78,0003.74,0003.22
2022-11-23 02:17:00,,0826.2,4.99,0.00,25.1,23.5,00.0,34.2,26.7,07.5,0000.0,0009.46,0003.74,0003.23
2022-11-23 02:18:00,,0826.2,5.00,0.00,25.1,23.5,00.0,34.2,26.7,07.5,0000.0,0008.37,0003.80,0003.24
2022-11-23 02:19:00,,0826.2,4.99,0.00,25.1,23.4,00.0,34.2,26.7,07.5,0000.0,0009.01,0003.87,0003.25
2022-11-23 02:20:00,,0826.2,5.00,0.00,25.1,23.4,00.0,34.1,26.6,07.6,0000.0,0009.07,0003.88,0003.26
2022-11-23 02:21:00,,0826.4,5.00,0.00,25.0,23.4,00.0,34.1,26.7,07.5,0000.0,0009.28,0003.87,0003.27
2022-11-23 02:22:00,,0826.2,5.02,0.00,25.0,23.4,00.0,34.1,26.7,07.5,0000.0,0009.45,0003.86,0003.27
2022-11-23 02:23:00,,0826.2,5.00,0.00,25.0,23.4,00.0,34.1,26.6,07.5,0000.0,0009.58,0003.89,0003.28
2022-11-23 02:24:00,,0826.2,4.99,0.00,25.0,23.4,00.0,34.1,26.6,07.5,0000.0,0009.27,0003.93,0003.29
2022-11-23 02:25:00,,0826.2,5.01,0.00,25.0,23.3,00.0,34.1,26.6,07.5,0000.0,0009.08,0003.96,0003.30
2022-11-23 02:26:00,,0826.2,4.98,0.00,25.0,23.3,00.0,34.0,26.6,07.5,0000.0,0009.44,0004.03,0003.31
2022-11-23 02:27:00,,0826.2,5.00,0.00,25.0,23.3,00.0,34.0,26.6,07.5,0000.0,0010.07,0004.07,0003.31
2022-11-23 02:28:00,,0826.2,5.00,0.00,24.9,23.3,00.0,34.0,26.5,07.5,0000.0,0010.32,0004.08,0003.32
2022-11-23 02:29:00,,0826.2,5.00,0.00,24.9,23.3,00.0,34.0,26.6,07.5,0000.0,0010.17,0004.03,0003.31
2022-11-23 02:30:00,,0826.2,5.01,0.00,24.9,23.3,00.0,34.0,26.6,07.5,0000.0,0009.59,0003.97,0003.30
2022-11-23 02:31:00,,0826.2,4.99,0.00,24.9,23.3,00.0,34.0,26.5,07.5,0000.0,0009.91,0003.98,0003.29
2022-11-23 02:32:00,,0826.2,4.99,0.00,24.9,23.2,00.0,34.0,26.5,07.6,0000.0,0010.07,0004.00,0003.27
2022-11-23 02:33:00,,0826.2,5.01,0.00,24.9,23.2,00.0,34.0,26.5,07.6,0000.0,0009.89,0004.04,0003.27
2022-11-23 02:34:00,,0826.2,5.00,0.00,24.9,23.2,00.0,34.0,26.5,07.6,0000.0,0009.85,0004.04,0003.27
2022-11-23 02:35:00,,0826.1,5.00,0.00,24.8,23.2,00.0,33.9,26.5,07.7,0000.0,0009.75,0003.98,0003.25
2022-11-23 02:36:00,,0826.2,4.99,0.00,24.8,23.2,00.0,33.9,26.4,07.7,0000.0,0009.97,0003.90,0003.24
2022-11-23 02:37:00,,0826.2,5.00,0.00,24.8,23.1,00.0,33.9,26.4,07.5,0000.0,0009.67,0003.80,0003.22
2022-11-23 02:38:00,,0826.1,5.01,0.00,24.8,23.1,00.0,33.8,26.3,07.5,0000.0,0008.87,0003.73,0003.21
2022-11-23 02:39:00,,0826.2,5.01,0.00,24.8,23.1,00.0,33.8,26.3,07.4,0000.0,0008.44,0003.71,0003.17
2022-11-23 02:40:00,,0826.2,4.98,0.00,24.8,23.1,00.0,33.8,26.4,07.5,0000.0,0008.56,0003.70,0003.15
2022-11-23 02:41:00,,0826.2,5.01,0.00,24.7,23.1,00.0,33.8,26.3,07.4,0000.0,0008.78,0003.68,0003.13
2022-11-23 02:42:00,,0826.2,5.00,0.00,24.7,23.1,00.0,33.8,26.2,07.7,0000.0,0008.44,0003.65,0003.12
2022-11-23 02:43:00,,0826.2,5.00,0.00,24.7,23.1,00.0,33.8,26.3,07.3,0000.0,0008.08,0003.64,0003.11
2022-11-23 02:44:00,,0826.2,4.99,0.00,24.7,23.1,00.0,33.8,26.3,07.3,0000.0,0007.84,0003.55,0003.06
2022-11-23 02:45:00,,0826.2,5.00,0.00,24.7,23.1,00.0,33.8,26.3,07.3,0000.0,0007.74,0003.50,0003.01
2022-11-23 02:46:00,,0826.2,5.00,0.00,24.7,23.1,00.0,33.8,26.4,07.2,0000.0,0007.69,0003.49,0002.99
2022-11-23 02:47:00,,0826.2,5.01,0.00,24.7,23.0,00.0,33.7,26.4,07.3,0000.0,0007.69,0003.48,0002.95
2022-11-23 02:48:00,,0826.2,4.99,0.00,24.6,23.0,00.0,33.7,26.3,07.3,0000.0,0007.59,0003.49,0002.92
2022-11-23 02:49:00,,0826.2,5.01,0.00,24.6,23.0,00.0,33.7,26.2,07.3,0000.0,0007.64,0003.50,0002.88
2022-11-23 02:50:00,,0826.2,5.00,0.00,24.6,23.0,00.0,33.7,26.1,07.3,0000.0,0007.52,0003.47,0002.86
2022-11-23 02:51:00,,0826.2,5.00,0.00,24.6,23.0,00.0,33.7,26.1,07.3,0000.0,0007.36,0003.43,0002.84
2022-11-23 02:52:00,,0826.1,4.99,0.00,24.6,23.0,00.0,33.7,26.1,07.1,0000.0,0007.66,0003.42,0002.83
2022-11-23 02:53:00,,0826.1,5.01,0.00,24.6,23.0,00.0,33.7,26.1,07.0,0000.0,0008.06,0003.38,0002.79
2022-11-23 02:54:00,,0826.0,5.01,0.00,24.6,23.0,00.0,33.6,26.1,07.0,0000.0,0008.92,0003.33,0002.72
2022-11-23 02:55:00,,0826.0,4.99,0.00,24.6,22.9,00.0,33.6,26.2,06.9,0000.0,0009.23,0003.33,0002.72
2022-11-23 02:56:00,,0826.0,5.00,0.00,24.5,22.9,00.0,33.6,26.2,06.9,0000.0,0009.17,0003.31,0002.70
2022-11-23 02:57:00,,0826.0,5.01,0.00,24.5,22.9,00.0,33.6,26.1,06.9,0000.0,0009.25,0003.29,0002.67
2022-11-23 02:58:00,,0826.0,5.01,0.00,24.5,22.9,00.0,33.6,26.1,06.9,0000.0,0009.51,0003.31,0002.65
2022-11-23 02:59:00,,0826.0,4.99,0.00,24.5,22.9,00.0,33.6,26.1,07.2,0000.0,0009.63,0003.30,0002.64
